TimeCDT,TemperatureF,Dew PointF,Humidity,Sea Level PressureIn,VisibilityMPH,Wind Direction,Wind SpeedMPH,Gust SpeedMPH,PrecipitationIn,Events,Conditions,WindDirDegrees,DateUTC
12:15 AM,46.4,30.2,53,29.82,10.0,SE,4.6,-,N/A,,Clear,130,2014-03-21 05:15:00
12:35 AM,45.7,30.2,55,29.82,10.0,ESE,5.8,-,N/A,,Clear,120,2014-03-21 05:35:00
12:55 AM,45.3,30.2,56,29.82,10.0,ESE,4.6,-,N/A,,Clear,120,2014-03-21 05:55:00
1:15 AM,42.6,29.7,60,29.81,10.0,SE,4.6,-,N/A,,Clear,140,2014-03-21 06:15:00
1:35 AM,42.1,29.8,62,29.81,10.0,ESE,4.6,-,N/A,,Clear,120,2014-03-21 06:35:00
1:55 AM,42.6,30.0,61,29.81,10.0,SE,5.8,-,N/A,,Clear,130,2014-03-21 06:55:00
2:15 AM,41.2,29.8,64,29.80,10.0,SE,5.8,-,N/A,,Clear,130,2014-03-21 07:15:00
2:35 AM,41.5,29.8,63,29.79,10.0,ESE,5.8,-,N/A,,Clear,120,2014-03-21 07:35:00
2:55 AM,41.4,29.8,64,29.78,10.0,ESE,3.5,-,N/A,,Clear,120,2014-03-21 07:55:00
3:15 AM,41.4,29.8,64,29.78,10.0,SE,5.8,-,N/A,,Clear,130,2014-03-21 08:15:00
3:35 AM,38.5,29.3,70,29.78,10.0,SE,6.9,-,N/A,,Clear,140,2014-03-21 08:35:00
3:55 AM,37.6,29.3,72,29.78,10.0,SE,6.9,-,N/A,,Clear,140,2014-03-21 08:55:00
4:15 AM,37.9,29.5,72,29.78,10.0,SE,5.8,-,N/A,,Clear,130,2014-03-21 09:15:00
4:35 AM,37.4,29.3,73,29.76,10.0,ESE,4.6,-,N/A,,Clear,120,2014-03-21 09:35:00
4:55 AM,37.4,29.3,73,29.76,10.0,SE,3.5,-,N/A,,Clear,130,2014-03-21 09:55:00
5:15 AM,37.9,29.8,73,29.77,10.0,Calm,Calm,-,N/A,,Clear,0,2014-03-21 10:15:00
5:35 AM,35.8,29.3,77,29.81,10.0,WNW,10.4,16.1,N/A,,Clear,290,2014-03-21 10:35:00
5:55 AM,37.6,30.2,75,29.83,10.0,WNW,9.2,-,N/A,,Clear,300,2014-03-21 10:55:00
6:15 AM,37.9,30.0,73,29.80,10.0,Calm,Calm,-,N/A,,Clear,0,2014-03-21 11:15:00
6:35 AM,34.2,28.8,81,29.81,10.0,Calm,Calm,-,N/A,,Clear,0,2014-03-21 11:35:00
6:55 AM,33.8,28.4,81,29.82,10.0,Calm,Calm,-,N/A,,Clear,0,2014-03-21 11:55:00
7:15 AM,34.9,29.1,79,29.82,10.0,Calm,Calm,-,N/A,,Clear,0,2014-03-21 12:15:00
7:35 AM,33.1,28.4,83,29.81,10.0,Calm,Calm,-,N/A,,Clear,0,2014-03-21 12:35:00
7:55 AM,35.6,29.5,78,29.82,10.0,Calm,Calm,-,N/A,,Clear,0,2014-03-21 12:55:00
8:15 AM,37.6,30.0,74,29.83,10.0,NW,8.1,-,N/A,,Clear,310,2014-03-21 13:15:00
8:35 AM,39.2,30.2,70,29.84,10.0,NW,8.1,-,N/A,,Clear,320,2014-03-21 13:35:00
8:55 AM,41.5,31.3,67,29.85,10.0,NW,8.1,-,N/A,,Clear,320,2014-03-21 13:55:00
9:15 AM,42.8,32.0,66,29.86,10.0,NW,10.4,16.1,N/A,,Clear,320,2014-03-21 14:15:00
9:35 AM,43.9,32.2,63,29.87,10.0,NW,11.5,17.3,N/A,,Clear,320,2014-03-21 14:35:00
9:55 AM,46.2,32.9,60,29.87,10.0,NNW,11.5,18.4,N/A,,Clear,330,2014-03-21 14:55:00
10:15 AM,47.5,32.5,56,29.88,10.0,NNW,15.0,23.0,N/A,,Clear,330,2014-03-21 15:15:00
10:35 AM,48.9,31.8,52,29.89,10.0,NW,17.3,25.3,N/A,,Clear,320,2014-03-21 15:35:00
10:55 AM,48.9,30.4,49,29.89,10.0,NNW,13.8,26.5,N/A,,Clear,330,2014-03-21 15:55:00
11:15 AM,50.0,31.1,48,29.89,10.0,NNW,15.0,24.2,N/A,,Clear,330,2014-03-21 16:15:00
11:35 AM,51.3,30.0,44,29.89,10.0,NW,20.7,27.6,N/A,,Clear,320,2014-03-21 16:35:00
11:55 AM,52.2,28.9,41,29.89,10.0,NNW,12.7,24.2,N/A,,Clear,330,2014-03-21 16:55:00
12:15 PM,53.1,27.7,38,29.89,10.0,NNW,20.7,27.6,N/A,,Clear,330,2014-03-21 17:15:00
12:35 PM,52.7,27.5,38,29.90,10.0,NW,16.1,27.6,N/A,,Clear,320,2014-03-21 17:35:00
12:55 PM,54.3,27.7,36,29.90,10.0,NNW,12.7,29.9,N/A,,Clear,330,2014-03-21 17:55:00
1:15 PM,55.2,27.7,35,29.90,10.0,NW,19.6,26.5,N/A,,Clear,320,2014-03-21 18:15:00
1:35 PM,55.4,27.3,34,29.91,10.0,NW,20.7,29.9,N/A,,Clear,320,2014-03-21 18:35:00
1:55 PM,56.3,27.5,33,29.91,10.0,NW,11.5,24.2,N/A,,Clear,320,2014-03-21 18:55:00
2:15 PM,55.9,27.5,34,29.91,10.0,NW,16.1,25.3,N/A,,Clear,320,2014-03-21 19:15:00
2:35 PM,56.5,27.7,33,29.91,10.0,NNW,18.4,27.6,N/A,,Clear,330,2014-03-21 19:35:00
2:55 PM,56.7,27.5,33,29.92,10.0,NW,17.3,26.5,N/A,,Clear,320,2014-03-21 19:55:00
3:15 PM,56.8,27.3,32,29.92,10.0,NW,18.4,32.2,N/A,,Clear,320,2014-03-21 20:15:00
3:35 PM,56.5,27.1,32,29.92,10.0,NW,23.0,34.5,N/A,,Clear,310,2014-03-21 20:35:00
3:55 PM,56.8,26.4,31,29.93,10.0,NW,20.7,29.9,N/A,,Clear,310,2014-03-21 20:55:00
4:15 PM,56.5,27.1,32,29.94,10.0,NW,24.2,32.2,N/A,,Scattered Clouds,320,2014-03-21 21:15:00
4:35 PM,54.5,27.5,35,29.95,10.0,NW,24.2,36.8,N/A,,Scattered Clouds,320,2014-03-21 21:35:00
4:55 PM,53.4,29.7,40,29.97,10.0,NNW,21.9,38.0,N/A,,Clear,340,2014-03-21 21:55:00
5:15 PM,51.8,30.0,43,29.98,10.0,NNW,19.6,31.1,N/A,,Clear,330,2014-03-21 22:15:00
5:35 PM,51.4,29.3,43,30.00,10.0,NNW,24.2,33.4,N/A,,Clear,330,2014-03-21 22:35:00
5:55 PM,48.9,30.7,50,30.02,10.0,NW,18.4,27.6,N/A,,Clear,320,2014-03-21 22:55:00
6:15 PM,48.4,30.9,51,30.03,10.0,NW,20.7,29.9,N/A,,Clear,320,2014-03-21 23:15:00
6:35 PM,47.5,30.6,52,30.05,10.0,NNW,13.8,31.1,N/A,,Scattered Clouds,330,2014-03-21 23:35:00
6:55 PM,46.0,30.2,54,30.06,10.0,NW,19.6,31.1,N/A,,Scattered Clouds,320,2014-03-21 23:55:00
7:15 PM,44.6,29.8,56,30.09,10.0,NNW,16.1,25.3,N/A,,Mostly Cloudy,340,2014-03-22 00:15:00
7:35 PM,43.9,28.9,56,30.10,10.0,NNW,19.6,29.9,N/A,,Overcast,330,2014-03-22 00:35:00
7:55 PM,42.8,28.4,57,30.12,10.0,NNW,15.0,28.8,N/A,,Overcast,330,2014-03-22 00:55:00
8:15 PM,41.9,27.1,56,30.13,10.0,NNW,12.7,28.8,N/A,,Overcast,330,2014-03-22 01:15:00
8:35 PM,41.5,27.1,57,30.14,10.0,North,13.8,23.0,N/A,,Overcast,350,2014-03-22 01:35:00
8:55 PM,40.3,26.6,58,30.15,10.0,NNW,15.0,24.2,N/A,,Overcast,330,2014-03-22 01:55:00
9:15 PM,39.2,26.2,60,30.16,10.0,NNW,16.1,25.3,N/A,,Overcast,330,2014-03-22 02:15:00
9:35 PM,37.9,25.7,61,30.18,10.0,NW,11.5,20.7,N/A,,Mostly Cloudy,320,2014-03-22 02:35:00
9:55 PM,37.4,24.3,59,30.18,10.0,NNW,11.5,23.0,N/A,,Scattered Clouds,340,2014-03-22 02:55:00
10:15 PM,36.5,23.7,60,30.19,10.0,NNW,12.7,21.9,N/A,,Clear,330,2014-03-22 03:15:00
10:35 PM,35.6,23.7,62,30.20,10.0,NNW,9.2,18.4,N/A,,Clear,340,2014-03-22 03:35:00
10:55 PM,35.1,23.5,63,30.21,10.0,NNW,10.4,19.6,N/A,,Clear,340,2014-03-22 03:55:00
11:15 PM,34.3,22.8,63,30.23,10.0,North,8.1,23.0,N/A,,Clear,350,2014-03-22 04:15:00
11:35 PM,33.4,21.7,62,30.23,10.0,North,10.4,18.4,N/A,,Clear,350,2014-03-22 04:35:00
11:55 PM,32.5,21.2,63,30.24,10.0,NNW,10.4,16.1,N/A,,Clear,340,2014-03-22 04:55:00